Location: Schommer Observatory
(40.5200°N, 74.4500°W)
Time: 15:32:09
(UTC-04:00)

Vanguard 1 - Visible Passes

Search period start: 21 October 2017 00:00
Search period end: 31 October 2017 00:00
Orbit: 650 x 3834 km, 34.3° (Epoch: 20 October)

Date Brightness Start Highest point End Pass type
(mag) Time Alt. Az. Time Alt. Az. Time Alt. Az.
21 Oct 12.9 01:50:12 45° ESE 01:50:12 45° ESE 02:04:45 10° E visible
21 Oct 12.4 04:02:55 57° WSW 04:08:24 72° S 04:32:01 10° ESE visible
21 Oct 13.2 06:15:38 14° W 06:34:37 54° SSW 06:55:38 10° SE visible
21 Oct 14.0 23:57:19 11° E 23:57:19 11° E 23:57:55 10° E visible
22 Oct 12.8 02:10:03 53° ESE 02:10:03 53° ESE 02:26:31 10° E visible
22 Oct 12.5 04:22:45 49° WSW 04:29:56 69° SSW 04:53:22 10° ESE visible
22 Oct 13.3 06:35:48 10° W 06:55:45 47° SSW 07:15:59 10° SSE visible
23 Oct 13.8 00:17:12 15° E 00:17:12 15° E 00:19:54 10° E visible
23 Oct 12.6 02:29:55 60° ESE 02:29:55 60° ESE 02:48:15 10° E visible
23 Oct 12.6 04:42:38 42° WSW 04:51:25 65° SSW 05:14:33 10° ESE visible
24 Oct 13.7 00:37:06 19° E 00:37:06 19° E 00:41:46 10° E visible
24 Oct 12.5 02:49:50 66° SE 02:49:50 66° SE 03:09:56 10° ESE visible
24 Oct 12.7 05:02:33 35° W 05:12:49 59° SSW 05:35:30 10° SE visible
25 Oct 13.5 00:57:03 24° E 00:57:03 24° E 01:03:35 10° E visible
25 Oct 12.4 03:09:47 69° SSE 03:09:47 69° SSE 03:31:30 10° ESE visible
25 Oct 12.9 05:22:30 29° W 05:34:08 53° SSW 05:56:11 10° SE visible
26 Oct 13.4 01:17:02 29° E 01:17:02 29° E 01:25:23 10° E visible
26 Oct 12.4 03:29:46 67° SSW 03:29:57 67° S 03:52:57 10° ESE visible
26 Oct 13.0 05:42:30 23° W 05:55:20 46° SSW 06:16:32 10° SSE visible
27 Oct 13.2 01:37:04 33° ESE 01:37:04 33° ESE 01:47:08 10° E visible
27 Oct 12.4 03:49:48 61° SSW 03:51:22 63° SSW 04:14:11 10° ESE visible
27 Oct 13.2 06:02:32 18° W 06:16:26 38° SW 06:36:29 10° SSE visible
28 Oct 13.1 01:57:08 38° ESE 01:57:08 38° ESE 02:08:51 10° ESE visible
28 Oct 12.4 04:09:52 54° SW 04:12:44 57° SSW 04:35:11 10° SE visible
28 Oct 13.3 06:22:36 13° W 06:37:28 31° SW 06:55:55 10° SSE visible
29 Oct 12.9 02:17:14 43° ESE 02:17:14 43° ESE 02:30:28 10° ESE visible
29 Oct 12.6 04:29:58 46° SW 04:34:04 50° SSW 04:55:53 10° SE visible
29 Oct 13.5 06:43:46 10° W 06:58:24 24° SW 07:14:37 10° S visible
30 Oct 12.8 02:37:22 46° SE 02:37:22 46° SE 02:51:56 10° ESE visible
30 Oct 12.7 04:50:06 38° WSW 04:55:19 43° SSW 05:16:14 10° SSE visible
